Regional Weather Roundup
Issued by NWS New Orleans/Baton Rouge, LA

Home | Current Version | Previous Version | Text Only | Print | Product List | Glossary On
Versions: 1 2 3 4 5 6 7 8 9 10 11 12 13 14 15 16 17 18 19 20 21 22 23 24 25 26 27 28 29 30 31 32 33 34 35 36 37 38 39 40 41 42 43 44 45 46 47 48 49 50
000
ASUS44 KLIX 090613
RWRLIX
NEW ORLEANS REGIONAL WEATHER ROUNDUP
NATIONAL WEATHER SERVICE NEW ORLEANS LA
1200 AM CST FRI DEC 09 2016

NOTE: "FAIR" INDICATES FEW OR NO CLOUDS BELOW 12,000 FEET WITH NO
      SIGNIFICANT WEATHER AND/OR OBSTRUCTIONS TO VISIBILITY.
      SKY/WX - SKY CONDITION AND SIGNIFICANT WEATHER.
      TMP - AIR TEMPERATURE.     DP    - DEWPOINT TEMPERATURE.
      RH  - RELATIVE HUMIDITY.   PRES  - PRESSURE.
      HI  - HEAT INDEX.          WCI   - WIND CHILL INDEX.

*  THESE STATIONS ARE NOT NWS OR FAA STATIONS AND ARE NOT UNDER
   NWS QUALITY CONTROL.

LAZ038-040-048-061>063-065>067-069-090700-
SOUTHEAST LOUISIANA

CITY           SKY/WX    TMP DP  RH WIND       PRES   REMARKS
N.O. AUDUBON   NOT AVBL
N.O. INTL ARPT CLOUDY    46  31  55 N16G23    30.47R
6HR MIN TEMP:  46; 6HR MAX TEMP:  53;

N.O. LAKEFRONT PTCLDY    47  33  58 N25       30.47R
6HR MIN TEMP:  47; 6HR MAX TEMP:  54;

N.O. DOWNTOWN*   N/A     47  29  49 N12G18    30.46R
6HR MIN TEMP:  47; 6HR MAX TEMP:  54;

RESERVE*         N/A     46  32  57 N10G16    30.48F
6HR MIN TEMP:  46; 6HR MAX TEMP:  54;

SLIDELL        PTCLDY    43  30  60 N13       30.46R
6HR MIN TEMP:  43; 6HR MAX TEMP:  51; 6HR PCP: TRACE;

BATON ROUGE    CLOUDY    41  28  60 N8        30.51R
6HR MIN TEMP:  41; 6HR MAX TEMP:  48;

BOOTHVILLE     MOCLDY    47  37  68 N13G29    30.41R
6HR MIN TEMP:  47; 6HR MAX TEMP:  52;

BELLE CHASSE   CLOUDY    46  30  53 N10G21    30.45R
6HR MIN TEMP:  46; 6HR MAX TEMP:  53;

BOGALUSA*        N/A     41  32  69 N8        30.51R
6HR MIN TEMP:  41; 6HR MAX TEMP:  49;

GALLIANO*      CLOUDY    47  28  47 N10G17    30.44R
6HR MIN TEMP:  47; 6HR MAX TEMP:  53;

NEW ROADS*     MOCLDY    39  28  63 N13       30.53S WCI  32
6HR MIN TEMP:  39; 6HR MAX TEMP:  46;

GONZALES*        N/A     42  30  62 N12G17    30.49S
6HR MIN TEMP:  42; 6HR MAX TEMP:  51;

HAMMOND*       PTCLDY    41  32  70 N10       30.50R
HOUMA*         CLOUDY    46  31  56 N15G26    30.45S
6HR MIN TEMP:  46; 6HR MAX TEMP:  51;

PORT FOURCHON* CLOUDY    48  32  53 N23       30.42R

$$

MSZ070-080>082-090700-
SOUTHERN MISSISSIPPI

CITY           SKY/WX    TMP DP  RH WIND       PRES   REMARKS
MCCOMB         CLEAR     38  23  55 N12       30.50S WCI  30
6HR MIN TEMP:  38; 6HR MAX TEMP:  45;

GULFPORT       CLOUDY    44  26  49 N13       30.44F
6HR MIN TEMP:  44; 6HR MAX TEMP:  52; 6HR PCP: TRACE;

BILOXI         CLOUDY    44  27  52 N13       30.43F
6HR MIN TEMP:  44; 6HR MAX TEMP:  51; 6HR PCP: TRACE;

PASCAGOULA     PTCLDY    42  25  50 N13       30.44S
6HR MIN TEMP:  42; 6HR MAX TEMP:  51; 6HR PCP: TRACE;


$$

COASTAL OBSERVATIONS
LAKE AND NEARSHORE STATIONS

STATION/POSITION TIME  TEMP    WIND        PRES    WAVE
                       AIR SEA DIR/SP/G            HT/PER
                 (UTC) (F)     (DEG/KT/KT) (MB)    (FT/S)
PASCAGOULA       0536          360/  7/ 13 1030.2
WAVELAND YACHT   0536           10/ 15/ 18 1030.8
GRAND ISLE       0536           40/ 16/ 26 1029.7
SOUTHWEST PASS   0536           30/ 27/ 32   N/A
NEW CANAL        0536           30/ 19/ 24 1030.6
SHELL BEACH      0536           20/ 23/ 29 1030.6

OFFSHORE STATIONS

STATION/POSITION TIME  TEMP    WIND        PRES    WAVE
                       AIR SEA DIR/SP/G            HT/PER
                 (UTC) (F)     (DEG/KT/KT) (MB)    (FT/S)
64 S DAUPHIN ISL 0550   56 74   20/ 25/ 31 1027.8    8/ 7

$$




USA.gov is the U.S. government's official web portal to all federal, state and local government web resources and services.